Location: Peterborough
(44.3091°N, 78.3197°W)
Time: 22:35:29
(UTC-04:00)

Vanguard 1 - Pass Details

Date: 18 April 2024
Orbit: 652 x 3825 km, 34.2° (Epoch: 29 May)

Event Time Altitude Azimuth Distance (km) Brightness Sun altitude
Rises 07:03:41 0° 245° (WSW) 7,730 14.0 6.2°
Reaches altitude 10° 07:09:34 10° 241° (WSW) 6,418 13.7 7.2°
Maximum altitude 07:27:19 51° 173° (S) 2,785 12.5 10.3°
Drops below altitude 10° 07:37:22 10° 101° (ESE) 3,792 15.0 12.1°
Sets 07:39:54 0° 96° (E) 4,465 15.3 12.6°
